Time,TemperatureF,DewpointF,PressureIn,WindDirection,WindDirectionDegrees,WindSpeedMPH,WindSpeedGustMPH,Humidity,HourlyPrecipIn,Conditions,Clouds,dailyrainin,SoftwareType,DateUTC
2013-08-03 00:02:00,63.9,52.7,30.04,West,267,8.0,14.0,67,0.00,,,0.00,Weather View 32 v70,2013-08-03 07:02:00,
2013-08-03 00:08:00,63.9,52.7,30.04,WNW,285,6.0,14.0,67,0.00,,,0.00,Weather View 32 v70,2013-08-03 07:08:00,
2013-08-03 00:13:00,63.7,52.5,30.04,WNW,283,3.0,14.0,67,0.00,,,0.00,Weather View 32 v70,2013-08-03 07:13:00,
2013-08-03 00:17:00,63.7,52.5,30.04,West,262,5.0,14.0,67,0.00,,,0.00,Weather View 32 v70,2013-08-03 07:17:00,
2013-08-03 00:22:00,63.7,52.5,30.04,West,270,2.0,14.0,67,0.00,,,0.00,Weather View 32 v70,2013-08-03 07:22:00,
2013-08-03 00:28:00,63.7,52.5,30.04,WSW,242,2.0,14.0,67,0.00,,,0.00,Weather View 32 v70,2013-08-03 07:28:00,
2013-08-03 00:32:00,63.7,52.5,30.04,WNW,296,2.0,14.0,67,0.00,,,0.00,Weather View 32 v70,2013-08-03 07:32:00,
2013-08-03 00:33:00,63.7,52.5,30.04,WNW,296,1.0,14.0,67,0.00,,,0.00,Weather View 32 v70,2013-08-03 07:33:00,
2013-08-03 00:38:00,63.5,52.3,30.04,North,0,3.0,14.0,67,0.00,,,0.00,Weather View 32 v70,2013-08-03 07:38:00,
2013-08-03 00:43:00,63.5,52.3,30.04,West,273,2.0,14.0,67,0.00,,,0.00,Weather View 32 v70,2013-08-03 07:43:00,
2013-08-03 00:48:00,63.4,53.8,30.04,WNW,287,3.0,14.0,71,0.00,,,0.00,Weather View 32 v70,2013-08-03 07:48:00,
2013-08-03 00:53:00,63.4,52.6,30.04,West,272,3.0,13.0,68,0.00,,,0.00,Weather View 32 v70,2013-08-03 07:53:00,
2013-08-03 00:58:00,63.2,52.4,30.04,West,278,3.0,13.0,68,0.00,,,0.00,Weather View 32 v70,2013-08-03 07:58:00,
2013-08-03 01:03:00,63.1,52.7,30.04,WNW,292,1.0,11.0,69,0.00,,,0.00,Weather View 32 v70,2013-08-03 08:03:00,
2013-08-03 01:08:00,63.1,52.7,30.04,West,281,6.0,11.0,69,0.00,,,0.00,Weather View 32 v70,2013-08-03 08:08:00,
2013-08-03 01:13:00,62.9,52.5,30.04,WNW,290,2.0,11.0,69,0.00,,,0.00,Weather View 32 v70,2013-08-03 08:13:00,
2013-08-03 01:18:00,62.7,52.7,30.04,West,262,5.0,13.0,70,0.00,,,0.00,Weather View 32 v70,2013-08-03 08:18:00,
2013-08-03 01:24:00,62.7,52.7,30.04,WNW,292,2.0,13.0,70,0.00,,,0.00,Weather View 32 v70,2013-08-03 08:24:00,
2013-08-03 01:29:00,62.7,52.7,30.04,West,264,6.0,13.0,70,0.00,,,0.00,Weather View 32 v70,2013-08-03 08:29:00,
2013-08-03 01:34:00,62.7,53.1,30.04,WNW,295,7.0,13.0,71,0.00,,,0.00,Weather View 32 v70,2013-08-03 08:34:00,
2013-08-03 01:39:00,62.7,53.1,30.04,West,273,0.0,13.0,71,0.00,,,0.00,Weather View 32 v70,2013-08-03 08:39:00,
2013-08-03 01:44:00,62.7,53.1,30.04,WNW,294,1.0,13.0,71,0.00,,,0.00,Weather View 32 v70,2013-08-03 08:44:00,
2013-08-03 01:49:00,62.6,53.0,30.04,West,267,4.0,13.0,71,0.00,,,0.00,Weather View 32 v70,2013-08-03 08:49:00,
2013-08-03 01:54:00,62.6,53.0,30.04,West,266,1.0,13.0,71,0.00,,,0.00,Weather View 32 v70,2013-08-03 08:54:00,
2013-08-03 01:59:00,62.6,53.0,30.04,West,281,1.0,13.0,71,0.00,,,0.00,Weather View 32 v70,2013-08-03 08:59:00,
2013-08-03 02:04:00,62.6,53.0,30.04,WNW,283,3.0,13.0,71,0.00,,,0.00,Weather View 32 v70,2013-08-03 09:04:00,
2013-08-03 02:09:00,62.4,53.2,30.04,WSW,252,8.0,13.0,72,0.00,,,0.00,Weather View 32 v70,2013-08-03 09:09:00,
2013-08-03 02:14:00,62.4,53.2,30.04,West,281,2.0,13.0,72,0.00,,,0.00,Weather View 32 v70,2013-08-03 09:14:00,
2013-08-03 02:19:00,62.4,53.2,30.04,West,269,4.0,11.0,72,0.00,,,0.00,Weather View 32 v70,2013-08-03 09:19:00,
2013-08-03 02:24:00,62.4,53.2,30.04,WNW,288,2.0,11.0,72,0.00,,,0.00,Weather View 32 v70,2013-08-03 09:24:00,
2013-08-03 02:29:00,62.4,53.2,30.04,WNW,287,2.0,11.0,72,0.00,,,0.00,Weather View 32 v70,2013-08-03 09:29:00,
2013-08-03 02:34:00,62.3,53.5,30.04,WNW,296,2.0,11.0,73,0.00,,,0.00,Weather View 32 v70,2013-08-03 09:34:00,
2013-08-03 02:39:00,62.3,53.5,30.03,WNW,289,8.0,11.0,73,0.00,,,0.00,Weather View 32 v70,2013-08-03 09:39:00,
2013-08-03 02:44:00,62.3,53.5,30.03,WNW,283,3.0,11.0,73,0.00,,,0.00,Weather View 32 v70,2013-08-03 09:44:00,
2013-08-03 02:49:00,62.3,53.5,30.03,WNW,297,3.0,12.0,73,0.00,,,0.00,Weather View 32 v70,2013-08-03 09:49:00,
2013-08-03 02:54:00,62.3,53.5,30.03,WSW,243,3.0,12.0,73,0.00,,,0.00,Weather View 32 v70,2013-08-03 09:54:00,
2013-08-03 02:59:00,62.3,53.5,30.04,WNW,294,8.0,12.0,73,0.00,,,0.00,Weather View 32 v70,2013-08-03 09:59:00,
2013-08-03 03:04:00,62.3,53.5,30.03,WNW,286,8.0,12.0,73,0.00,,,0.00,Weather View 32 v70,2013-08-03 10:04:00,
2013-08-03 03:09:00,62.1,53.7,30.03,West,275,3.0,14.0,74,0.00,,,0.00,Weather View 32 v70,2013-08-03 10:09:00,
2013-08-03 03:14:00,62.1,53.7,30.04,WNW,302,2.0,14.0,74,0.00,,,0.00,Weather View 32 v70,2013-08-03 10:14:00,
2013-08-03 03:19:00,62.0,54.0,30.04,WNW,298,1.0,14.0,75,0.00,,,0.00,Weather View 32 v70,2013-08-03 10:19:00,
2013-08-03 03:24:00,62.0,54.0,30.04,WNW,295,6.0,14.0,75,0.00,,,0.00,Weather View 32 v70,2013-08-03 10:24:00,
2013-08-03 03:29:00,62.0,54.0,30.04,West,277,1.0,14.0,75,0.00,,,0.00,Weather View 32 v70,2013-08-03 10:29:00,
2013-08-03 03:34:00,62.0,54.0,30.04,WSW,254,2.0,14.0,75,0.00,,,0.00,Weather View 32 v70,2013-08-03 10:34:00,
2013-08-03 03:39:00,62.0,54.0,30.04,West,261,4.0,14.0,75,0.00,,,0.00,Weather View 32 v70,2013-08-03 10:39:00,
2013-08-03 03:44:00,62.0,54.0,30.04,WNW,298,1.0,14.0,75,0.00,,,0.00,Weather View 32 v70,2013-08-03 10:44:00,
2013-08-03 03:49:00,61.8,53.8,30.04,West,261,5.0,14.0,75,0.00,,,0.00,Weather View 32 v70,2013-08-03 10:49:00,
2013-08-03 03:54:00,61.8,54.1,30.04,WNW,292,2.0,14.0,76,0.00,,,0.00,Weather View 32 v70,2013-08-03 10:54:00,
2013-08-03 03:59:00,61.6,53.9,30.04,West,274,2.0,14.0,76,0.00,,,0.00,Weather View 32 v70,2013-08-03 10:59:00,
2013-08-03 04:04:00,61.6,54.3,30.04,WNW,290,4.0,14.0,77,0.00,,,0.00,Weather View 32 v70,2013-08-03 11:04:00,
2013-08-03 04:09:00,61.5,54.2,30.04,West,274,2.0,13.0,77,0.00,,,0.00,Weather View 32 v70,2013-08-03 11:09:00,
2013-08-03 04:14:00,61.5,54.2,30.04,West,273,2.0,11.0,77,0.00,,,0.00,Weather View 32 v70,2013-08-03 11:14:00,
2013-08-03 04:19:00,61.5,54.2,30.04,West,281,5.0,11.0,77,0.00,,,0.00,Weather View 32 v70,2013-08-03 11:19:00,
2013-08-03 04:24:00,61.5,54.2,30.04,West,263,3.0,11.0,77,0.00,,,0.00,Weather View 32 v70,2013-08-03 11:24:00,
2013-08-03 04:29:00,61.3,54.0,30.04,WNW,302,2.0,12.0,77,0.00,,,0.00,Weather View 32 v70,2013-08-03 11:29:00,
2013-08-03 04:34:00,61.3,54.0,30.05,WNW,292,2.0,12.0,77,0.00,,,0.00,Weather View 32 v70,2013-08-03 11:34:00,
2013-08-03 04:39:00,61.3,54.0,30.05,WNW,283,2.0,12.0,77,0.00,,,0.00,Weather View 32 v70,2013-08-03 11:39:00,
2013-08-03 04:44:00,61.3,54.0,30.05,West,274,2.0,12.0,77,0.00,,,0.00,Weather View 32 v70,2013-08-03 11:44:00,
2013-08-03 04:49:00,61.3,54.0,30.05,West,269,3.0,12.0,77,0.00,,,0.00,Weather View 32 v70,2013-08-03 11:49:00,
2013-08-03 04:54:00,61.2,53.9,30.05,West,270,2.0,12.0,77,0.00,,,0.00,Weather View 32 v70,2013-08-03 11:54:00,
2013-08-03 04:59:00,61.0,53.7,30.05,West,270,4.0,12.0,77,0.00,,,0.00,Weather View 32 v70,2013-08-03 11:59:00,
2013-08-03 05:04:00,61.0,53.7,30.05,West,270,3.0,12.0,77,0.00,,,0.00,Weather View 32 v70,2013-08-03 12:04:00,
2013-08-03 05:09:00,61.0,54.1,30.05,WNW,282,2.0,12.0,78,0.00,,,0.00,Weather View 32 v70,2013-08-03 12:09:00,
2013-08-03 05:14:00,60.9,54.0,30.05,WNW,283,2.0,12.0,78,0.00,,,0.00,Weather View 32 v70,2013-08-03 12:14:00,
2013-08-03 05:19:00,60.9,54.0,30.05,WNW,296,1.0,12.0,78,0.00,,,0.00,Weather View 32 v70,2013-08-03 12:19:00,
2013-08-03 05:24:00,60.9,54.0,30.05,WNW,293,1.0,12.0,78,0.00,,,0.00,Weather View 32 v70,2013-08-03 12:24:00,
2013-08-03 05:29:00,60.7,54.1,30.05,WNW,284,1.0,8.0,79,0.00,,,0.00,Weather View 32 v70,2013-08-03 12:29:00,
2013-08-03 05:34:00,60.7,54.1,30.05,West,278,1.0,9.0,79,0.00,,,0.00,Weather View 32 v70,2013-08-03 12:34:00,
2013-08-03 05:39:00,60.7,54.1,30.05,WNW,297,3.0,9.0,79,0.00,,,0.00,Weather View 32 v70,2013-08-03 12:39:00,
2013-08-03 05:44:00,60.5,53.9,30.06,WNW,286,5.0,9.0,79,0.00,,,0.00,Weather View 32 v70,2013-08-03 12:44:00,
2013-08-03 05:49:00,60.5,53.9,30.06,WNW,286,2.0,9.0,79,0.00,,,0.00,Weather View 32 v70,2013-08-03 12:49:00,
2013-08-03 05:54:00,60.4,54.2,30.06,WNW,285,7.0,9.0,80,0.00,,,0.00,Weather View 32 v70,2013-08-03 12:54:00,
2013-08-03 05:59:00,60.4,54.2,30.06,WNW,285,2.0,9.0,80,0.00,,,0.00,Weather View 32 v70,2013-08-03 12:59:00,
2013-08-03 06:04:00,60.4,54.2,30.06,West,281,5.0,9.0,80,0.00,,,0.00,Weather View 32 v70,2013-08-03 13:04:00,
2013-08-03 06:09:00,60.2,54.0,30.06,WNW,283,2.0,9.0,80,0.00,,,0.00,Weather View 32 v70,2013-08-03 13:09:00,
2013-08-03 06:14:00,60.2,54.0,30.06,WNW,282,4.0,9.0,80,0.00,,,0.00,Weather View 32 v70,2013-08-03 13:14:00,
2013-08-03 06:19:00,60.4,54.2,30.06,WNW,282,6.0,9.0,80,0.00,,,0.00,Weather View 32 v70,2013-08-03 13:19:00,
2013-08-03 06:24:00,60.4,54.2,30.07,WNW,292,2.0,9.0,80,0.00,,,0.00,Weather View 32 v70,2013-08-03 13:24:00,
2013-08-03 06:29:00,60.4,54.2,30.07,WNW,288,2.0,9.0,80,0.00,,,0.00,Weather View 32 v70,2013-08-03 13:29:00,
2013-08-03 06:34:00,60.4,54.2,30.07,WNW,288,6.0,9.0,80,0.00,,,0.00,Weather View 32 v70,2013-08-03 13:34:00,
2013-08-03 06:39:00,60.5,54.3,30.07,WNW,291,1.0,8.0,80,0.00,,,0.00,Weather View 32 v70,2013-08-03 13:39:00,
2013-08-03 06:44:00,60.5,54.3,30.07,WNW,290,3.0,8.0,80,0.00,,,0.00,Weather View 32 v70,2013-08-03 13:44:00,
2013-08-03 06:49:00,60.5,54.6,30.07,WNW,288,2.0,8.0,81,0.00,,,0.00,Weather View 32 v70,2013-08-03 13:49:00,
2013-08-03 06:54:00,60.5,54.6,30.07,WNW,289,2.0,8.0,81,0.00,,,0.00,Weather View 32 v70,2013-08-03 13:54:00,
2013-08-03 06:59:00,60.5,55.0,30.07,WNW,289,1.0,8.0,82,0.00,,,0.00,Weather View 32 v70,2013-08-03 13:59:00,
2013-08-03 07:04:00,60.2,53.3,30.08,WNW,289,2.0,8.0,78,0.00,,,0.00,Weather View 32 v70,2013-08-03 14:04:00,
2013-08-03 07:09:00,59.8,52.9,30.08,WNW,289,0.0,8.0,78,0.00,,,0.00,Weather View 32 v70,2013-08-03 14:09:00,
2013-08-03 07:14:00,59.6,52.7,30.08,WNW,289,0.0,8.0,78,0.00,,,0.00,Weather View 32 v70,2013-08-03 14:14:00,
2013-08-03 07:19:00,59.8,53.3,30.08,WNW,289,0.0,8.0,79,0.00,,,0.00,Weather View 32 v70,2013-08-03 14:19:00,
2013-08-03 07:24:00,60.2,53.6,30.08,WNW,289,0.0,8.0,79,0.00,,,0.00,Weather View 32 v70,2013-08-03 14:24:00,
2013-08-03 07:29:00,60.7,54.5,30.08,WNW,301,0.0,7.0,80,0.00,,,0.00,Weather View 32 v70,2013-08-03 14:29:00,
2013-08-03 07:34:00,61.0,55.1,30.08,WNW,301,2.0,7.0,81,0.00,,,0.00,Weather View 32 v70,2013-08-03 14:34:00,
2013-08-03 07:39:00,61.2,55.0,30.08,WNW,301,1.0,7.0,80,0.00,,,0.00,Weather View 32 v70,2013-08-03 14:39:00,
2013-08-03 07:45:00,61.5,55.3,30.08,WNW,302,2.0,8.0,80,0.00,,,0.00,Weather View 32 v70,2013-08-03 14:45:00,
2013-08-03 07:52:00,61.8,55.5,30.08,WNW,300,1.0,8.0,80,0.00,,,0.00,Weather View 32 v70,2013-08-03 14:52:00,
2013-08-03 07:57:00,62.1,55.1,30.08,WNW,298,2.0,8.0,78,0.00,,,0.00,Weather View 32 v70,2013-08-03 14:57:00,
2013-08-03 08:02:00,62.4,55.1,30.07,West,272,5.0,9.0,77,0.00,,,0.00,Weather View 32 v70,2013-08-03 15:02:00,
2013-08-03 08:07:00,62.6,55.3,30.07,West,269,4.0,9.0,77,0.00,,,0.00,Weather View 32 v70,2013-08-03 15:07:00,
2013-08-03 08:12:00,62.6,55.3,30.07,WNW,289,3.0,9.0,77,0.00,,,0.00,Weather View 32 v70,2013-08-03 15:12:00,
2013-08-03 08:17:00,62.9,55.2,30.07,West,281,2.0,9.0,76,0.00,,,0.00,Weather View 32 v70,2013-08-03 15:17:00,
2013-08-03 08:22:00,63.2,55.1,30.07,West,277,3.0,9.0,75,0.00,,,0.00,Weather View 32 v70,2013-08-03 15:22:00,
2013-08-03 08:27:00,63.4,54.9,30.07,WNW,285,2.0,9.0,74,0.00,,,0.00,Weather View 32 v70,2013-08-03 15:27:00,
2013-08-03 08:32:00,63.7,55.2,30.07,WNW,285,1.0,9.0,74,0.00,,,0.00,Weather View 32 v70,2013-08-03 15:32:00,
2013-08-03 08:37:00,63.9,55.4,30.07,WNW,284,2.0,9.0,74,0.00,,,0.00,Weather View 32 v70,2013-08-03 15:37:00,
2013-08-03 08:42:00,64.2,55.3,30.07,WNW,293,3.0,9.0,73,0.00,,,0.00,Weather View 32 v70,2013-08-03 15:42:00,
2013-08-03 08:47:00,64.5,55.2,30.07,NW,309,2.0,9.0,72,0.00,,,0.00,Weather View 32 v70,2013-08-03 15:47:00,
2013-08-03 08:52:00,64.8,55.1,30.08,WNW,294,6.0,9.0,71,0.00,,,0.00,Weather View 32 v70,2013-08-03 15:52:00,
2013-08-03 08:57:00,64.8,55.1,30.07,West,274,4.0,10.0,71,0.00,,,0.00,Weather View 32 v70,2013-08-03 15:57:00,
2013-08-03 09:04:00,64.8,55.1,30.08,WNW,298,4.0,10.0,71,0.00,,,0.00,Weather View 32 v70,2013-08-03 16:04:00,
2013-08-03 09:10:00,65.5,55.4,30.07,WNW,301,2.0,10.0,70,0.00,,,0.00,Weather View 32 v70,2013-08-03 16:10:00,
2013-08-03 09:15:00,65.6,55.5,30.07,NW,305,10.0,10.0,70,0.00,,,0.00,Weather View 32 v70,2013-08-03 16:15:00,
2013-08-03 09:20:00,65.5,55.4,30.07,WNW,298,3.0,10.0,70,0.00,,,0.00,Weather View 32 v70,2013-08-03 16:20:00,
2013-08-03 09:24:00,65.3,55.6,30.07,WNW,296,7.0,10.0,71,0.00,,,0.00,Weather View 32 v70,2013-08-03 16:24:00,
2013-08-03 09:30:00,65.6,56.3,30.07,West,277,7.0,11.0,72,0.00,,,0.00,Weather View 32 v70,2013-08-03 16:30:00,
2013-08-03 09:35:00,65.8,56.1,30.07,WNW,287,6.0,11.0,71,0.00,,,0.00,Weather View 32 v70,2013-08-03 16:35:00,
2013-08-03 09:39:00,66.0,55.9,30.07,WNW,296,4.0,11.0,70,0.00,,,0.00,Weather View 32 v70,2013-08-03 16:39:00,
2013-08-03 09:44:00,66.3,55.8,30.07,WNW,294,7.0,11.0,69,0.00,,,0.00,Weather View 32 v70,2013-08-03 16:44:00,
2013-08-03 09:49:00,66.3,55.0,30.07,WSW,252,3.0,11.0,67,0.00,,,0.00,Weather View 32 v70,2013-08-03 16:49:00,
2013-08-03 09:54:00,66.8,55.5,30.07,WNW,290,4.0,11.0,67,0.00,,,0.00,Weather View 32 v70,2013-08-03 16:54:00,
2013-08-03 09:59:00,67.6,55.4,30.07,WNW,294,7.0,11.0,65,0.00,,,0.00,Weather View 32 v70,2013-08-03 16:59:00,
2013-08-03 10:04:00,67.9,55.7,30.07,WNW,291,4.0,11.0,65,0.00,,,0.00,Weather View 32 v70,2013-08-03 17:04:00,
2013-08-03 10:09:00,67.9,55.2,30.07,NW,311,6.0,11.0,64,0.00,,,0.00,Weather View 32 v70,2013-08-03 17:09:00,
2013-08-03 10:14:00,68.3,55.2,30.07,WNW,302,6.0,11.0,63,0.00,,,0.00,Weather View 32 v70,2013-08-03 17:14:00,
2013-08-03 10:19:00,68.6,55.9,30.07,NW,306,5.0,11.0,64,0.00,,,0.00,Weather View 32 v70,2013-08-03 17:19:00,
2013-08-03 10:24:00,68.9,55.3,30.07,WNW,297,4.0,11.0,62,0.00,,,0.00,Weather View 32 v70,2013-08-03 17:24:00,
2013-08-03 10:29:00,68.8,54.8,30.07,WNW,302,5.0,11.0,61,0.00,,,0.00,Weather View 32 v70,2013-08-03 17:29:00,
2013-08-03 10:34:00,68.9,54.9,30.07,WNW,299,5.0,11.0,61,0.00,,,0.00,Weather View 32 v70,2013-08-03 17:34:00,
2013-08-03 10:39:00,69.3,55.2,30.06,WNW,298,4.0,11.0,61,0.00,,,0.00,Weather View 32 v70,2013-08-03 17:39:00,
2013-08-03 10:44:00,69.8,55.2,30.06,WNW,302,3.0,10.0,60,0.00,,,0.00,Weather View 32 v70,2013-08-03 17:44:00,
2013-08-03 10:49:00,70.3,55.7,30.06,WNW,302,3.0,10.0,60,0.00,,,0.00,Weather View 32 v70,2013-08-03 17:49:00,
2013-08-03 10:54:00,70.9,55.8,30.06,NW,308,2.0,10.0,59,0.00,,,0.00,Weather View 32 v70,2013-08-03 17:54:00,
2013-08-03 10:59:00,71.6,55.5,30.06,NW,307,3.0,10.0,57,0.00,,,0.00,Weather View 32 v70,2013-08-03 17:59:00,
2013-08-03 11:04:00,72.0,55.4,30.06,NW,306,4.0,10.0,56,0.00,,,0.00,Weather View 32 v70,2013-08-03 18:04:00,
2013-08-03 11:09:00,72.0,55.9,30.05,NW,306,3.0,10.0,57,0.00,,,0.00,Weather View 32 v70,2013-08-03 18:09:00,
2013-08-03 11:14:00,72.7,55.5,30.05,NW,306,2.0,10.0,55,0.00,,,0.00,Weather View 32 v70,2013-08-03 18:14:00,
2013-08-03 11:19:00,73.0,52.7,30.05,NW,307,2.0,10.0,49,0.00,,,0.00,Weather View 32 v70,2013-08-03 18:19:00,
2013-08-03 11:24:00,73.7,54.4,30.05,NW,305,4.0,10.0,51,0.00,,,0.00,Weather View 32 v70,2013-08-03 18:24:00,
2013-08-03 11:29:00,73.9,54.0,30.05,NW,309,1.0,9.0,50,0.00,,,0.00,Weather View 32 v70,2013-08-03 18:29:00,
2013-08-03 11:34:00,74.4,54.5,30.05,NW,306,2.0,9.0,50,0.00,,,0.00,Weather View 32 v70,2013-08-03 18:34:00,
2013-08-03 11:39:00,74.2,54.9,30.04,NW,304,1.0,9.0,51,0.00,,,0.00,Weather View 32 v70,2013-08-03 18:39:00,
2013-08-03 11:44:00,74.6,56.3,30.04,NW,309,4.0,9.0,53,0.00,,,0.00,Weather View 32 v70,2013-08-03 18:44:00,
2013-08-03 11:49:00,74.7,54.8,30.04,NW,305,4.0,9.0,50,0.00,,,0.00,Weather View 32 v70,2013-08-03 18:49:00,
2013-08-03 11:54:00,74.9,54.4,30.04,NW,305,2.0,9.0,49,0.00,,,0.00,Weather View 32 v70,2013-08-03 18:54:00,
2013-08-03 11:59:00,74.9,54.4,30.04,NW,305,2.0,9.0,49,0.00,,,0.00,Weather View 32 v70,2013-08-03 18:59:00,
2013-08-03 12:04:00,75.1,54.6,30.03,NW,305,2.0,9.0,49,0.00,,,0.00,Weather View 32 v70,2013-08-03 19:04:00,
2013-08-03 12:09:00,75.3,54.2,30.03,NW,305,3.0,9.0,48,0.00,,,0.00,Weather View 32 v70,2013-08-03 19:09:00,
2013-08-03 12:14:00,76.0,54.8,30.03,WNW,302,2.0,9.0,48,0.00,,,0.00,Weather View 32 v70,2013-08-03 19:14:00,
2013-08-03 12:19:00,76.3,53.9,30.03,WNW,301,5.0,9.0,46,0.00,,,0.00,Weather View 32 v70,2013-08-03 19:19:00,
2013-08-03 12:24:00,76.5,55.3,30.03,WNW,300,2.0,9.0,48,0.00,,,0.00,Weather View 32 v70,2013-08-03 19:24:00,
2013-08-03 12:29:00,76.7,54.3,30.02,WNW,301,5.0,9.0,46,0.00,,,0.00,Weather View 32 v70,2013-08-03 19:29:00,
2013-08-03 12:34:00,76.5,54.7,30.02,WNW,302,2.0,9.0,47,0.00,,,0.00,Weather View 32 v70,2013-08-03 19:34:00,
2013-08-03 12:39:00,77.2,54.7,30.02,NW,304,4.0,7.0,46,0.00,,,0.00,Weather View 32 v70,2013-08-03 19:39:00,
2013-08-03 12:44:00,77.4,54.3,30.02,NW,304,3.0,7.0,45,0.00,,,0.00,Weather View 32 v70,2013-08-03 19:44:00,
2013-08-03 12:49:00,77.6,55.1,30.02,NW,304,3.0,7.0,46,0.00,,,0.00,Weather View 32 v70,2013-08-03 19:49:00,
2013-08-03 12:54:00,77.9,54.8,30.02,NW,304,3.0,7.0,45,0.00,,,0.00,Weather View 32 v70,2013-08-03 19:54:00,
2013-08-03 12:59:00,78.1,55.6,30.01,NW,304,4.0,7.0,46,0.00,,,0.00,Weather View 32 v70,2013-08-03 19:59:00,
2013-08-03 13:04:00,79.0,54.5,30.01,NW,306,2.0,7.0,43,0.00,,,0.00,Weather View 32 v70,2013-08-03 20:04:00,
2013-08-03 13:09:00,79.0,54.5,30.01,NW,305,1.0,7.0,43,0.00,,,0.00,Weather View 32 v70,2013-08-03 20:09:00,
2013-08-03 13:14:00,79.2,54.7,30.01,NW,304,4.0,7.0,43,0.00,,,0.00,Weather View 32 v70,2013-08-03 20:14:00,
2013-08-03 13:19:00,79.6,54.4,30.01,WNW,300,3.0,7.0,42,0.00,,,0.00,Weather View 32 v70,2013-08-03 20:19:00,
2013-08-03 13:24:00,80.1,55.5,30.01,WNW,302,2.0,8.0,43,0.00,,,0.00,Weather View 32 v70,2013-08-03 20:24:00,
2013-08-03 13:29:00,80.1,54.9,30.01,WNW,301,4.0,8.0,42,0.00,,,0.00,Weather View 32 v70,2013-08-03 20:29:00,
2013-08-03 13:34:00,80.3,54.4,30.00,WNW,300,8.0,8.0,41,0.00,,,0.00,Weather View 32 v70,2013-08-03 20:34:00,
2013-08-03 13:39:00,79.8,53.3,30.00,WNW,294,1.0,9.0,40,0.00,,,0.00,Weather View 32 v70,2013-08-03 20:39:00,
2013-08-03 13:44:00,79.9,53.3,30.00,WNW,298,2.0,9.0,40,0.00,,,0.00,Weather View 32 v70,2013-08-03 20:44:00,
2013-08-03 13:49:00,80.1,52.8,30.00,WNW,303,0.0,9.0,39,0.00,,,0.00,Weather View 32 v70,2013-08-03 20:49:00,
2013-08-03 13:54:00,80.3,52.3,30.00,NW,304,4.0,9.0,38,0.00,,,0.00,Weather View 32 v70,2013-08-03 20:54:00,
2013-08-03 13:59:00,80.3,53.0,30.00,WNW,303,3.0,9.0,39,0.00,,,0.00,Weather View 32 v70,2013-08-03 20:59:00,
2013-08-03 14:04:00,80.5,52.5,30.00,WNW,302,2.0,9.0,38,0.00,,,0.00,Weather View 32 v70,2013-08-03 21:04:00,
2013-08-03 14:09:00,80.9,54.2,30.00,WNW,302,0.0,9.0,40,0.00,,,0.00,Weather View 32 v70,2013-08-03 21:09:00,
2013-08-03 14:14:00,81.4,53.3,29.99,WNW,302,2.0,9.0,38,0.00,,,0.00,Weather View 32 v70,2013-08-03 21:14:00,
2013-08-03 14:19:00,81.4,53.3,29.99,WNW,302,3.0,9.0,38,0.00,,,0.00,Weather View 32 v70,2013-08-03 21:19:00,
2013-08-03 14:24:00,81.6,53.4,29.99,WNW,300,6.0,9.0,38,0.00,,,0.00,Weather View 32 v70,2013-08-03 21:24:00,
2013-08-03 14:29:00,80.9,53.5,29.99,WNW,303,4.0,9.0,39,0.00,,,0.00,Weather View 32 v70,2013-08-03 21:29:00,
2013-08-03 14:34:00,81.2,55.2,29.98,NW,306,6.0,9.0,41,0.00,,,0.00,Weather View 32 v70,2013-08-03 21:34:00,
2013-08-03 14:39:00,81.2,55.2,29.98,NW,306,2.0,8.0,41,0.00,,,0.00,Weather View 32 v70,2013-08-03 21:39:00,
2013-08-03 14:44:00,81.8,55.7,29.98,WNW,298,3.0,8.0,41,0.00,,,0.00,Weather View 32 v70,2013-08-03 21:44:00,
2013-08-03 14:49:00,81.6,56.2,29.98,WNW,300,3.0,9.0,42,0.00,,,0.00,Weather View 32 v70,2013-08-03 21:49:00,
2013-08-03 14:55:00,82.0,55.9,29.97,WNW,303,6.0,9.0,41,0.00,,,0.00,Weather View 32 v70,2013-08-03 21:55:00,
2013-08-03 15:00:00,82.8,55.2,29.97,NNW,331,6.0,9.0,39,0.00,,,0.00,Weather View 32 v70,2013-08-03 22:00:00,
2013-08-03 15:05:00,83.4,57.1,29.97,NW,316,5.0,9.0,41,0.00,,,0.00,Weather View 32 v70,2013-08-03 22:05:00,
2013-08-03 15:10:00,83.8,55.4,29.97,WNW,300,6.0,9.0,38,0.00,,,0.00,Weather View 32 v70,2013-08-03 22:10:00,
2013-08-03 15:14:00,83.6,55.2,29.96,NW,313,7.0,10.0,38,0.00,,,0.00,Weather View 32 v70,2013-08-03 22:14:00,
2013-08-03 15:20:00,83.8,56.1,29.96,WNW,302,3.0,10.0,39,0.00,,,0.00,Weather View 32 v70,2013-08-03 22:20:00,
2013-08-03 15:25:00,83.6,55.2,29.96,WNW,303,7.0,12.0,38,0.00,,,0.00,Weather View 32 v70,2013-08-03 22:25:00,
2013-08-03 15:29:00,83.4,55.8,29.96,WNW,303,4.0,12.0,39,0.00,,,0.00,Weather View 32 v70,2013-08-03 22:29:00,
2013-08-03 15:35:00,83.2,56.3,29.96,NW,312,4.0,12.0,40,0.00,,,0.00,Weather View 32 v70,2013-08-03 22:35:00,
2013-08-03 15:39:00,83.8,56.1,29.96,WNW,286,5.0,12.0,39,0.00,,,0.00,Weather View 32 v70,2013-08-03 22:39:00,
2013-08-03 15:44:00,84.1,55.7,29.96,WNW,300,6.0,12.0,38,0.00,,,0.00,Weather View 32 v70,2013-08-03 22:44:00,
2013-08-03 15:49:00,84.3,55.8,29.96,WNW,288,3.0,12.0,38,0.00,,,0.00,Weather View 32 v70,2013-08-03 22:49:00,
2013-08-03 15:54:00,84.5,53.7,29.95,WNW,294,3.0,12.0,35,0.00,,,0.00,Weather View 32 v70,2013-08-03 22:54:00,
2013-08-03 15:59:00,84.7,54.7,29.95,West,280,3.0,12.0,36,0.00,,,0.00,Weather View 32 v70,2013-08-03 22:59:00,
2013-08-03 16:04:00,84.3,55.1,29.95,WSW,256,5.0,13.0,37,0.00,,,0.00,Weather View 32 v70,2013-08-03 23:04:00,
2013-08-03 16:10:00,84.0,55.6,29.95,NW,304,3.0,13.0,38,0.00,,,0.00,Weather View 32 v70,2013-08-03 23:10:00,
2013-08-03 16:14:00,84.5,56.0,29.95,WNW,302,6.0,13.0,38,0.00,,,0.00,Weather View 32 v70,2013-08-03 23:14:00,
2013-08-03 16:19:00,84.7,56.9,29.95,WNW,287,5.0,13.0,39,0.00,,,0.00,Weather View 32 v70,2013-08-03 23:19:00,
2013-08-03 16:24:00,84.5,54.5,29.94,WNW,302,8.0,13.0,36,0.00,,,0.00,Weather View 32 v70,2013-08-03 23:24:00,
2013-08-03 16:29:00,84.1,54.9,29.94,WNW,300,7.0,13.0,37,0.00,,,0.00,Weather View 32 v70,2013-08-03 23:29:00,
2013-08-03 16:34:00,84.3,55.1,29.94,NW,313,8.0,13.0,37,0.00,,,0.00,Weather View 32 v70,2013-08-03 23:34:00,
2013-08-03 16:39:00,84.5,53.7,29.94,West,281,4.0,13.0,35,0.00,,,0.00,Weather View 32 v70,2013-08-03 23:39:00,
2013-08-03 16:44:00,84.7,54.7,29.94,WNW,300,5.0,13.0,36,0.00,,,0.00,Weather View 32 v70,2013-08-03 23:44:00,
2013-08-03 16:49:00,84.7,55.5,29.94,WNW,284,5.0,13.0,37,0.00,,,0.00,Weather View 32 v70,2013-08-03 23:49:00,
2013-08-03 16:54:00,84.3,55.1,29.94,WNW,293,2.0,13.0,37,0.00,,,0.00,Weather View 32 v70,2013-08-03 23:54:00,
2013-08-03 16:59:00,84.1,55.7,29.94,WNW,298,5.0,13.0,38,0.00,,,0.00,Weather View 32 v70,2013-08-03 23:59:00,
2013-08-03 17:04:00,83.4,55.8,29.94,WNW,297,3.0,12.0,39,0.00,,,0.00,Weather View 32 v70,2013-08-04 00:04:00,
2013-08-03 17:09:00,83.6,57.3,29.94,West,267,2.0,12.0,41,0.00,,,0.00,Weather View 32 v70,2013-08-04 00:09:00,
2013-08-03 17:14:00,83.4,57.8,29.94,WNW,301,4.0,12.0,42,0.00,,,0.00,Weather View 32 v70,2013-08-04 00:14:00,
2013-08-03 17:19:00,83.4,57.1,29.93,NW,311,4.0,12.0,41,0.00,,,0.00,Weather View 32 v70,2013-08-04 00:19:00,
2013-08-03 17:24:00,83.6,56.6,29.93,NW,311,8.0,12.0,40,0.00,,,0.00,Weather View 32 v70,2013-08-04 00:24:00,
2013-08-03 17:29:00,83.8,58.8,29.93,West,270,8.0,12.0,43,0.00,,,0.00,Weather View 32 v70,2013-08-04 00:29:00,
2013-08-03 17:34:00,84.0,57.0,29.93,WNW,295,4.0,12.0,40,0.00,,,0.00,Weather View 32 v70,2013-08-04 00:34:00,
2013-08-03 17:39:00,83.8,56.1,29.93,West,269,3.0,12.0,39,0.00,,,0.00,Weather View 32 v70,2013-08-04 00:39:00,
2013-08-03 17:44:00,83.4,56.5,29.93,WNW,302,6.0,13.0,40,0.00,,,0.00,Weather View 32 v70,2013-08-04 00:44:00,
2013-08-03 17:49:00,83.4,55.8,29.93,WNW,288,3.0,13.0,39,0.00,,,0.00,Weather View 32 v70,2013-08-04 00:49:00,
2013-08-03 17:54:00,82.6,55.7,29.93,WNW,283,3.0,13.0,40,0.00,,,0.00,Weather View 32 v70,2013-08-04 00:54:00,
2013-08-03 17:59:00,82.0,55.2,29.92,West,277,4.0,13.0,40,0.00,,,0.00,Weather View 32 v70,2013-08-04 00:59:00,
2013-08-03 18:04:00,81.6,55.5,29.92,West,272,6.0,13.0,41,0.00,,,0.00,Weather View 32 v70,2013-08-04 01:04:00,
2013-08-03 18:09:00,81.2,55.2,29.92,WNW,292,3.0,13.0,41,0.00,,,0.00,Weather View 32 v70,2013-08-04 01:09:00,
2013-08-03 18:14:00,81.1,54.4,29.92,WNW,284,4.0,13.0,40,0.00,,,0.00,Weather View 32 v70,2013-08-04 01:14:00,
2013-08-03 18:19:00,81.1,54.4,29.92,WNW,290,6.0,13.0,40,0.00,,,0.00,Weather View 32 v70,2013-08-04 01:19:00,
2013-08-03 18:24:00,80.9,54.2,29.92,West,275,3.0,13.0,40,0.00,,,0.00,Weather View 32 v70,2013-08-04 01:24:00,
2013-08-03 18:29:00,80.9,54.9,29.92,West,267,3.0,13.0,41,0.00,,,0.00,Weather View 32 v70,2013-08-04 01:29:00,
2013-08-03 18:34:00,80.9,55.6,29.92,West,273,4.0,13.0,42,0.00,,,0.00,Weather View 32 v70,2013-08-04 01:34:00,
2013-08-03 18:39:00,81.1,55.8,29.92,NW,309,6.0,13.0,42,0.00,,,0.00,Weather View 32 v70,2013-08-04 01:39:00,
2013-08-03 18:44:00,81.6,56.2,29.92,NW,311,8.0,13.0,42,0.00,,,0.00,Weather View 32 v70,2013-08-04 01:44:00,
2013-08-03 18:49:00,82.4,55.6,29.92,NW,304,6.0,11.0,40,0.00,,,0.00,Weather View 32 v70,2013-08-04 01:49:00,
2013-08-03 18:54:00,82.8,55.9,29.92,WNW,301,4.0,11.0,40,0.00,,,0.00,Weather View 32 v70,2013-08-04 01:54:00,
2013-08-03 18:59:00,82.6,55.7,29.92,WNW,297,4.0,11.0,40,0.00,,,0.00,Weather View 32 v70,2013-08-04 01:59:00,
2013-08-03 19:04:00,81.8,55.7,29.91,NW,308,7.0,12.0,41,0.00,,,0.00,Weather View 32 v70,2013-08-04 02:04:00,
2013-08-03 19:09:00,81.2,56.5,29.91,NW,307,5.0,13.0,43,0.00,,,0.00,Weather View 32 v70,2013-08-04 02:09:00,
2013-08-03 19:14:00,80.9,56.2,29.91,WNW,285,6.0,13.0,43,0.00,,,0.00,Weather View 32 v70,2013-08-04 02:14:00,
2013-08-03 19:19:00,80.7,56.0,29.91,WNW,291,3.0,13.0,43,0.00,,,0.00,Weather View 32 v70,2013-08-04 02:19:00,
2013-08-03 19:24:00,80.5,55.9,29.91,West,277,5.0,13.0,43,0.00,,,0.00,Weather View 32 v70,2013-08-04 02:24:00,
2013-08-03 19:29:00,80.3,56.3,29.91,West,271,7.0,16.0,44,0.00,,,0.00,Weather View 32 v70,2013-08-04 02:29:00,
2013-08-03 19:34:00,80.1,56.1,29.91,West,275,9.0,16.0,44,0.00,,,0.00,Weather View 32 v70,2013-08-04 02:34:00,
2013-08-03 19:39:00,79.8,55.9,29.91,West,268,8.0,16.0,44,0.00,,,0.00,Weather View 32 v70,2013-08-04 02:39:00,
2013-08-03 19:44:00,79.6,56.3,29.91,WNW,302,5.0,16.0,45,0.00,,,0.00,Weather View 32 v70,2013-08-04 02:44:00,
2013-08-03 19:49:00,79.4,56.7,29.91,West,277,7.0,16.0,46,0.00,,,0.00,Weather View 32 v70,2013-08-04 02:49:00,
2013-08-03 19:54:00,79.0,56.4,29.91,WNW,292,2.0,16.0,46,0.00,,,0.00,Weather View 32 v70,2013-08-04 02:54:00,
2013-08-03 19:59:00,78.8,56.8,29.91,West,263,9.0,16.0,47,0.00,,,0.00,Weather View 32 v70,2013-08-04 02:59:00,
2013-08-03 20:04:00,78.5,56.5,29.91,West,275,9.0,16.0,47,0.00,,,0.00,Weather View 32 v70,2013-08-04 03:04:00,
2013-08-03 20:09:00,78.1,56.7,29.91,West,264,4.0,16.0,48,0.00,,,0.00,Weather View 32 v70,2013-08-04 03:09:00,
2013-08-03 20:14:00,77.7,56.4,29.91,NW,306,4.0,16.0,48,0.00,,,0.00,Weather View 32 v70,2013-08-04 03:14:00,
2013-08-03 20:19:00,77.4,56.7,29.91,West,266,4.0,16.0,49,0.00,,,0.00,Weather View 32 v70,2013-08-04 03:19:00,
2013-08-03 20:24:00,77.0,56.3,29.91,WNW,290,4.0,16.0,49,0.00,,,0.00,Weather View 32 v70,2013-08-04 03:24:00,
2013-08-03 20:29:00,76.8,56.7,29.91,WNW,288,7.0,15.0,50,0.00,,,0.00,Weather View 32 v70,2013-08-04 03:29:00,
2013-08-03 20:34:00,76.7,56.6,29.92,WNW,294,3.0,15.0,50,0.00,,,0.00,Weather View 32 v70,2013-08-04 03:34:00,
2013-08-03 20:39:00,76.5,56.4,29.92,WSW,240,11.0,15.0,50,0.00,,,0.00,Weather View 32 v70,2013-08-04 03:39:00,
2013-08-03 20:44:00,76.3,56.2,29.92,NW,307,9.0,15.0,50,0.00,,,0.00,Weather View 32 v70,2013-08-04 03:44:00,
2013-08-03 20:49:00,76.1,56.0,29.92,NW,304,8.0,15.0,50,0.00,,,0.00,Weather View 32 v70,2013-08-04 03:49:00,
2013-08-03 20:54:00,76.0,56.5,29.93,WSW,252,5.0,15.0,51,0.00,,,0.00,Weather View 32 v70,2013-08-04 03:54:00,
2013-08-03 20:59:00,75.8,56.3,29.93,WSW,257,7.0,15.0,51,0.00,,,0.00,Weather View 32 v70,2013-08-04 03:59:00,
2013-08-03 21:01:00,75.8,56.9,29.93,NW,308,3.0,15.0,52,0.00,,,0.00,Weather View 32 v70,2013-08-04 04:01:00,
2013-08-03 21:02:00,75.8,56.9,29.93,WNW,296,3.0,15.0,52,0.00,,,0.00,Weather View 32 v70,2013-08-04 04:02:00,
2013-08-03 21:07:00,75.6,56.7,29.93,WNW,292,2.0,15.0,52,0.00,,,0.00,Weather View 32 v70,2013-08-04 04:07:00,
2013-08-03 21:12:00,75.6,56.7,29.93,WNW,298,4.0,15.0,52,0.00,,,0.00,Weather View 32 v70,2013-08-04 04:12:00,
2013-08-03 21:17:00,75.4,57.0,29.93,WSW,253,3.0,15.0,53,0.00,,,0.00,Weather View 32 v70,2013-08-04 04:17:00,
2013-08-03 21:22:00,75.3,56.9,29.93,WNW,285,5.0,15.0,53,0.00,,,0.00,Weather View 32 v70,2013-08-04 04:22:00,
2013-08-03 21:27:00,75.1,57.3,29.94,SW,233,3.0,15.0,54,0.00,,,0.00,Weather View 32 v70,2013-08-04 04:27:00,
2013-08-03 21:32:00,74.9,57.1,29.94,WSW,253,0.0,15.0,54,0.00,,,0.00,Weather View 32 v70,2013-08-04 04:32:00,
2013-08-03 21:37:00,74.9,57.1,29.94,West,265,0.0,13.0,54,0.00,,,0.00,Weather View 32 v70,2013-08-04 04:37:00,
2013-08-03 21:42:00,74.6,56.8,29.94,West,265,0.0,13.0,54,0.00,,,0.00,Weather View 32 v70,2013-08-04 04:42:00,
2013-08-03 21:47:00,74.2,56.9,29.94,West,265,0.0,13.0,55,0.00,,,0.00,Weather View 32 v70,2013-08-04 04:47:00,
2013-08-03 21:52:00,73.9,57.2,29.94,West,265,0.0,13.0,56,0.00,,,0.00,Weather View 32 v70,2013-08-04 04:52:00,
2013-08-03 21:57:00,73.5,57.3,29.95,West,265,0.0,13.0,57,0.00,,,0.00,Weather View 32 v70,2013-08-04 04:57:00,
2013-08-03 22:02:00,73.3,57.1,29.94,West,265,0.0,13.0,57,0.00,,,0.00,Weather View 32 v70,2013-08-04 05:02:00,
2013-08-03 22:07:00,73.3,57.1,29.95,West,265,1.0,10.0,57,0.00,,,0.00,Weather View 32 v70,2013-08-04 05:07:00,
2013-08-03 22:12:00,73.5,57.3,29.95,West,268,3.0,10.0,57,0.00,,,0.00,Weather View 32 v70,2013-08-04 05:12:00,
2013-08-03 22:17:00,73.9,57.2,29.95,West,273,4.0,9.0,56,0.00,,,0.00,Weather View 32 v70,2013-08-04 05:17:00,
2013-08-03 22:22:00,73.9,57.7,29.95,WNW,287,1.0,9.0,57,0.00,,,0.00,Weather View 32 v70,2013-08-04 05:22:00,
2013-08-03 22:27:00,73.5,57.3,29.95,West,273,7.0,8.0,57,0.00,,,0.00,Weather View 32 v70,2013-08-04 05:27:00,
2013-08-03 22:32:00,73.5,57.8,29.95,West,261,2.0,9.0,58,0.00,,,0.00,Weather View 32 v70,2013-08-04 05:32:00,
2013-08-03 22:37:00,73.3,57.6,29.95,WSW,256,5.0,9.0,58,0.00,,,0.00,Weather View 32 v70,2013-08-04 05:37:00,
2013-08-03 22:42:00,73.2,57.5,29.95,WSW,256,0.0,9.0,58,0.00,,,0.00,Weather View 32 v70,2013-08-04 05:42:00,
2013-08-03 22:47:00,72.8,57.6,29.95,WSW,256,0.0,9.0,59,0.00,,,0.00,Weather View 32 v70,2013-08-04 05:47:00,
2013-08-03 22:52:00,72.5,57.8,29.95,WNW,286,2.0,9.0,60,0.00,,,0.00,Weather View 32 v70,2013-08-04 05:52:00,
2013-08-03 22:57:00,72.7,58.0,29.95,WNW,284,2.0,9.0,60,0.00,,,0.00,Weather View 32 v70,2013-08-04 05:57:00,
2013-08-03 23:02:00,72.5,57.8,29.95,WNW,284,2.0,9.0,60,0.00,,,0.00,Weather View 32 v70,2013-08-04 06:02:00,
2013-08-03 23:07:00,72.3,58.1,29.95,WNW,284,0.0,9.0,61,0.00,,,0.00,Weather View 32 v70,2013-08-04 06:07:00,
2013-08-03 23:12:00,72.1,57.9,29.96,WNW,284,0.0,9.0,61,0.00,,,0.00,Weather View 32 v70,2013-08-04 06:12:00,
2013-08-03 23:17:00,72.0,57.8,29.96,WNW,284,1.0,9.0,61,0.00,,,0.00,Weather View 32 v70,2013-08-04 06:17:00,
2013-08-03 23:22:00,72.0,57.8,29.96,West,281,4.0,9.0,61,0.00,,,0.00,Weather View 32 v70,2013-08-04 06:22:00,
2013-08-03 23:27:00,72.1,57.9,29.96,West,281,1.0,9.0,61,0.00,,,0.00,Weather View 32 v70,2013-08-04 06:27:00,
2013-08-03 23:32:00,72.1,57.9,29.96,West,281,2.0,9.0,61,0.00,,,0.00,Weather View 32 v70,2013-08-04 06:32:00,
2013-08-03 23:37:00,71.8,57.6,29.96,WNW,282,0.0,9.0,61,0.00,,,0.00,Weather View 32 v70,2013-08-04 06:37:00,
2013-08-03 23:42:00,71.3,57.1,29.96,WNW,282,1.0,9.0,61,0.00,,,0.00,Weather View 32 v70,2013-08-04 06:42:00,
2013-08-03 23:47:00,70.8,57.1,29.96,WNW,282,0.0,9.0,62,0.00,,,0.00,Weather View 32 v70,2013-08-04 06:47:00,
2013-08-03 23:52:00,70.3,56.6,29.96,WNW,282,0.0,8.0,62,0.00,,,0.00,Weather View 32 v70,2013-08-04 06:52:00,
2013-08-03 23:57:00,69.9,57.6,29.96,WNW,282,0.0,6.0,65,0.00,,,0.00,Weather View 32 v70,2013-08-04 06:57:00,